SCP
0 -0 -0 0 -0 -0 -0 -0 -0 -0 -0 -0 -0 -0 -0 0 0 0 -0 -0 0 0 0 0 0 0 0 -0 -0 -0 -0 -0 -0 -0 -0 -0 -0 -0 -0 -0 -0 -0 -0
0 -0 0 -0 -0 -0 -0 -0 -0 -0 -0 -0 -0 -0 -0 0 0 0 -0 -0 -0 0 0 0 -0 -0 -0 -0 -0 -0 -0 -0 -0 -0 -0 -0 -0 -0 -0 -0 -0 -0 -0
0 0 -0 -0 -0 -0 -0 -0 -0 -0 -0 -0 -0 -0 -0 -0 0 0 0 -0 -0 -0 -0 -0 -0 -0 -0 -0 -0 -0 -0 -0 -0 -0 -0 -0 -0 -0 -0 -0 -0 -0 -0
0 0 0 0 -0 0 0 -0 0 -0 -0 -0 -0 -0 0 -0 -0 0 0 -0 -0 -0 -0 -0 -0 -0 -0 -0 -0 -0 -0 -0 -0 -0 0 -0 -0 -0 -0 -0 -0 -0 -0
0 0 0 0 0 0 0 0 0 -0 -0 -0 -0 0 0 -0 -0 -0 -0 -0 -0 -0 -0 -0 -0 -0 -0 -0 -0 -0 -0 -0 -0 -0 -0 0 0 -0 -0 -0 -0 -0 -0
-0 0 0 0 0 0 0 0 0 0 -0 -0 -0 0 -0 -0 -0 -0 -0 -0 -0 -0 -0 -0 -0 -0 -0 -0 -0 -0 -0 -0 0 -0 -0 -0 -0 -0 -0 -0 -0 -0 -0
-0 0 0 0 0 0 0 0 0 0 0 -0 -0 -0 -0 -0 -0 -0 -0 -0 -0 0 -0 -0 -0 0 0 -0 -0 -0 -0 0 0 0 0 0 -0 -0 -0 -0 -0 -0 -0
0 0 0 0 0 0 0 0 0 0 0 0 -0 -0 -0 -0 -0 0 -0 0 0 0 0 0 0 0 0 0 0 -0 0 0 0 0 0 0 0 -0 -0 -0 -0 -0 -0
0 0 0 0 0 0 0 0 0 0 0 0 0 -0 -0 0 0 0 0 0 0 0 0 0 0 0 0 0 0 0 0 0 0 0 0 0 0 0 0 0 -0 -0 -0
-0 0 0 0 0 0 0 0 0 0 0 0 0 0 0 0 0 0 0 0 0 0 0 0 0 0 0 0 0 0 0 0 0 0 0 0 0 0 0 0 0 0 0
0 0 0 0 0 0 0 0 0 0 0 0 0 0 0 0 0 0 0 0 0 0 0 0 0 0 0 0 0 0 0 0 0 0 0 0 0 0 0 0 0 0 0
0 0 0 0 0 0 0 0 0 0 0 0 0 0 0 0 0 0 0 0 0 0 0 0 0 0 0 0 0 0 0 0 0 0 0 0 0 0 0 0 0 0 0
0 0 0 0 0 0 0 0 0 0 0 0 0 0 0 0 0 0 0 0 0 0 0 0 0 0 0 0 0 0 0 0 0 0 0 0 0 0 0 0 0 0 0
0 0 0 0 0 0 0 0 0 0 0 0 0 0 0 0 0 0 0 0 0 0 0 0 0 0 0 0 0 0 0 0 0 0 0 0 0 0 0 0 0 0 0
0 0 0 0 0 0 0 0 0 0 0 0 0 0 0 0 0 0 0 0 0 0 0 0 0 0 0 0 0 0 0 0 0 0 0 0 0 0 0 0 0 0 -0
0 0 0 0 0 0 0 0 0 0 0 0 0 0 0 0 0 0 0 0 0 0 0 0 0 0 0 0 0 0 0 0 0 0 0 0 0 0 0 0 0 0 -0
0 0 0 0 0 0 0 0 0 0 0 0 0 0 0 0 0 0 0 0 0 0 0 0 0 0 0 0 0 0 0 0 0 0 0 0 0 0 0 0 0 0 0
0 0 0 0 0 0 0 0 0 0 0 0 0 0 0 0 0 0 0 0 0 0 0 0 0 0 0 0 0 0 0 0 0 0 0 0 0 0 0 0 0 0 0
0 0 0 0 0 0 0 0 0 0 0 0 0 0 0 0 0 0 0 0 0 0 0 0 0 0 0 0 0 0 0 0 0 0 0 0 0 0 0 0 0 0 0
0 0 0 0 0 0 0 0 0 0 0 0 0 0 0 0 0 0 0 0 0 0 0 0 0 0 0 0 0 0 0 0 0 0 0 0 0 0 0 0 0 0 0
0 0 0 0 0 0 0 0 0 0 0 0 0 0 0 0 0 0 0 0 0 0 0 0 0 0 0 0 0 0 0 0 0 0 0 0 0 0 0 0 0 0 0
0 0 0 0 0 0 0 0 0 0 0 0 0 0 0 0 0 0 0 0 0 0 0 0 0 0 0 0 0 0 0 0 0 0 0 0 0 0 0 0 0 0 0
0 0 0 0 0 0 0 0 0 0 0 0 0 0 0 0 0 0 0 0 0 0 0 0 0 0 0 0 0 0 0 0 0 0 0 0 0 0 0 0 0 0 0
0 0 0 0 0 0 0 0 0 0 0 0 0 0 0 0 0 0 0 0 0 0 0 0 0 0 0 0 0 0 0 0 0 0 0 0 0 0 0 0 0 0 0
0 0 0 0 0 0 0 0 0 0 0 0 0 0 0 0 0 0 0 0 0 0 0 0 0 0 0 0 0 0 0 0 0 0 0 0 0 0 0 0 0 0 0
0 0 0 0 0 0 0 0 0 0 0 0 0 0 0 0 0 0 0 0 0 0 0 0 0 0 0 0 0 0 0 0 0 0 0 0 0 0 0 0 0 0 0
Wind_Speed_500mb
53 64 58 55 43 41 32 24 18 14 16 21 25 29 32 39 47 46 44 52 56 49 41 41 34 42 47 47 41 47 56 52 43 36 35 36 37 46 47 43 39 39 40
63 59 52 53 46 41 28 21 11 7 15 32 27 32 33 37 39 43 44 42 33 28 42 38 37 46 49 46 44 39 43 41 44 32 41 40 34 37 32 30 31 35 35
63 58 53 49 50 39 27 16 6 3 25 34 38 32 29 30 31 35 36 36 37 42 49 46 45 43 46 44 39 32 31 31 31 25 39 32 25 26 31 33 36 38 36
55 50 53 53 52 35 26 16 8 12 33 43 38 32 27 21 32 35 35 38 42 38 40 39 32 29 27 27 27 25 27 27 31 33 39 35 38 35 39 41 35 29 29
53 50 53 56 48 33 25 17 10 18 32 41 36 31 28 27 37 35 46 45 35 30 26 33 29 21 17 20 20 22 32 38 40 42 43 44 44 37 34 34 33 34 34
57 55 54 53 42 31 24 20 12 23 37 38 34 33 33 37 44 45 44 38 29 27 22 25 24 20 17 21 25 27 35 37 39 34 33 38 29 25 27 31 30 28 26
59 54 53 49 39 32 25 20 16 27 38 37 36 31 42 43 43 39 34 30 26 20 17 15 17 17 21 26 33 31 42 37 31 25 23 25 21 23 26 25 28 23 24
61 57 52 46 40 32 23 21 19 27 42 40 38 34 39 38 35 35 31 25 20 18 13 10 12 11 26 38 38 34 40 37 25 21 21 26 25 21 25 25 24 24 22
53 56 53 49 41 34 25 22 20 24 45 46 38 38 35 34 34 32 28 23 18 18 19 18 17 19 27 35 36 33 37 36 22 27 26 23 23 19 20 21 19 19 16
52 54 53 51 48 40 30 25 22 21 46 48 43 34 32 32 30 28 27 24 20 22 18 19 22 32 30 32 35 33 28 37 23 31 29 24 18 20 20 20 16 16 13
51 55 56 54 51 46 36 30 26 24 33 47 38 36 35 31 26 26 29 27 23 26 22 19 35 34 29 23 30 36 31 24 23 26 27 24 22 18 18 16 13 10 7
47 54 58 55 54 48 42 36 32 32 32 44 45 40 36 29 24 23 26 27 29 28 28 25 31 33 31 32 32 28 23 25 22 25 25 27 22 16 15 13 9 6 2
40 43 56 59 55 52 48 45 40 37 35 46 44 41 41 33 31 29 34 37 32 32 33 23 35 32 34 33 35 28 26 26 23 20 28 28 23 17 16 11 5 2 2
40 43 45 57 60 57 48 50 44 40 40 46 49 50 47 39 40 39 38 36 35 36 39 32 36 34 37 39 37 36 33 26 24 23 23 30 26 27 16 7 7 8 9
39 43 47 51 66 63 56 51 51 46 43 44 52 53 53 47 44 41 40 44 41 40 38 35 35 35 37 34 38 37 33 33 34 31 25 23 29 25 18 16 16 15 13
37 40 44 50 56 66 62 60 54 52 46 46 46 50 55 50 48 50 44 40 48 48 43 39 38 37 41 39 39 39 37 34 33 34 33 29 27 26 23 21 20 19 17
40 38 43 48 53 63 67 66 61 59 54 53 47 47 51 51 49 56 47 45 50 52 49 48 46 42 48 45 43 41 39 36 33 32 31 30 28 27 25 25 24 23 21
43 45 43 47 52 61 68 71 71 66 62 59 58 48 50 51 48 48 51 47 48 51 56 52 49 45 45 52 48 43 41 38 35 34 34 33 31 29 28 27 27 26 23
53 53 48 51 53 58 68 77 76 75 73 70 66 64 54 50 51 52 49 47 50 51 49 54 52 47 49 54 54 50 47 44 41 39 36 34 33 31 30 28 27 27 24
57 63 58 54 56 57 62 75 81 79 83 76 77 72 66 62 50 53 54 53 49 52 51 55 53 49 47 51 53 49 48 48 47 44 41 39 37 34 32 30 29 28 25
49 51 58 61 63 62 69 73 82 86 90 88 85 77 74 71 66 62 59 55 52 55 56 53 54 57 52 53 49 50 48 50 49 48 46 43 41 37 35 32 30 28 24
54 60 63 60 63 68 75 76 82 88 95 91 93 85 79 77 79 77 70 63 60 60 59 58 66 61 58 59 57 39 22 44 56 53 51 49 46 42 38 35 31 28 28
51 59 62 64 61 63 70 71 79 82 89 87 88 90 89 87 88 87 80 74 71 66 66 62 65 71 68 64 66 35 20 22 28 57 60 55 51 47 43 39 34 32 33
30 44 54 62 67 68 67 74 79 88 82 89 96 95 91 93 93 92 91 88 81 79 72 68 66 70 75 74 70 72 55 20 20 16 47 59 60 54 50 43 38 38 38
11 20 33 46 58 65 65 74 79 85 87 76 90 93 91 93 93 101 98 96 93 89 85 79 73 76 77 78 80 76 76 67 39 25 16 30 45 52 51 46 44 43 42
6 7 15 27 44 59 64 64 81 82 85 88 83 92 98 95 97 98 100 104 98 96 96 92 86 82 79 77 80 84 82 83 83 62 44 36 33 37 41 43 45 45 44
Wind_Direction_500mb
171 169 168 166 169 171 170 160 159 163 174 162 149 141 127 120 127 125 121 114 121 131 130 130 131 130 120 126 129 116 118 118 121 124 124 130 129 116 120 116 109 102 117
169 171 169 170 172 176 170 159 160 162 174 166 155 144 138 134 131 131 129 124 123 121 147 133 120 128 133 131 132 127 125 118 112 98 135 129 124 122 121 121 115 109 119
172 173 172 174 174 177 168 162 158 147 151 157 153 146 145 149 148 142 142 134 131 118 121 124 118 122 129 131 134 133 125 124 126 109 114 120 128 140 120 107 109 104 107
171 173 177 176 176 174 167 162 153 150 148 150 151 156 157 157 165 152 152 145 139 139 131 121 116 122 129 128 128 136 143 140 140 133 114 116 105 114 112 110 111 114 110
170 165 171 174 177 174 167 164 158 155 153 157 158 165 156 140 149 153 151 150 150 146 156 145 140 144 157 152 150 133 136 130 137 129 109 111 114 124 124 131 119 116 111
173 169 175 176 181 178 168 170 163 159 155 157 165 170 163 147 145 145 150 153 155 149 152 162 158 165 186 178 168 158 141 146 140 126 131 130 121 140 129 129 125 127 130
175 175 178 180 183 182 177 181 169 163 161 162 165 169 165 164 159 157 156 159 164 173 195 206 220 205 193 188 179 191 163 155 151 135 132 134 142 146 142 138 133 130 134
180 179 184 186 189 188 185 187 177 168 170 164 169 171 169 174 179 177 178 185 186 184 193 214 244 229 192 187 179 178 178 173 149 143 143 153 138 135 133 139 141 132 122
183 182 189 189 195 196 191 192 184 174 178 170 174 184 190 183 188 188 185 190 208 231 243 240 203 201 183 183 185 185 181 169 149 145 138 134 144 151 135 124 127 123 120
187 189 195 192 195 199 196 198 189 174 179 178 186 186 197 208 210 217 216 215 228 241 229 195 198 183 180 193 197 195 192 183 159 150 145 150 165 146 135 137 136 124 119
190 194 198 201 199 202 202 200 194 182 176 189 186 194 204 214 219 225 227 229 218 204 203 210 179 185 175 176 176 191 168 156 155 159 150 152 147 145 146 143 147 143 125
193 196 199 205 205 204 203 199 205 192 184 185 193 202 204 214 221 211 206 197 196 200 206 209 187 184 181 174 169 164 163 163 156 166 157 159 167 166 163 172 160 146 110
196 200 206 203 208 209 206 201 205 203 192 190 195 201 207 213 204 187 185 191 194 207 208 206 197 192 182 184 179 168 172 165 168 171 175 168 171 186 189 191 168 163 223
201 204 208 209 210 212 213 208 211 214 205 196 198 200 205 212 201 183 189 200 204 209 209 200 200 201 190 186 182 183 186 182 177 176 190 183 183 186 194 228 262 267 271
215 211 214 212 209 216 212 217 216 216 218 213 207 207 211 217 211 209 198 202 205 206 207 204 200 202 194 193 185 192 195 196 198 199 203 196 195 214 236 247 257 261 270
227 225 223 218 214 217 217 220 224 223 222 226 219 213 213 216 214 215 212 205 208 212 216 211 208 205 206 204 202 202 203 202 205 209 216 223 231 239 250 257 260 263 266
238 227 232 224 217 218 220 223 226 230 228 225 227 227 217 217 220 218 222 215 219 210 217 218 214 215 208 208 208 208 207 207 210 215 222 231 238 242 247 255 262 267 267
242 236 230 235 230 222 221 225 224 228 231 229 229 229 228 221 220 220 222 219 219 218 213 218 222 219 218 210 211 211 214 218 221 225 230 235 242 249 254 260 265 266 264
244 242 233 229 230 233 226 226 229 226 229 230 229 227 227 228 228 224 225 222 224 224 221 220 224 225 221 215 214 216 219 224 228 231 236 241 245 251 257 262 266 269 266
246 246 241 230 229 229 233 230 231 231 233 233 232 230 227 225 226 233 229 227 228 227 225 222 223 224 226 218 218 225 229 231 234 236 237 239 243 250 256 262 268 270 261
249 246 242 235 231 227 226 231 231 230 231 233 234 230 231 229 225 224 230 231 231 229 229 227 223 221 220 216 217 227 234 236 237 238 239 241 244 248 252 256 261 263 246
252 249 246 241 236 229 231 234 234 232 233 237 235 232 231 232 229 226 227 226 231 234 230 227 225 220 216 217 217 218 231 242 240 239 240 243 244 246 249 253 256 250 239
258 252 247 244 240 234 232 229 231 235 236 234 231 238 232 231 231 231 232 229 227 230 236 233 230 226 222 219 220 212 211 223 229 239 240 242 243 246 247 248 249 243 234
252 250 246 244 243 242 229 228 225 225 225 226 232 240 236 235 233 232 233 232 231 228 230 236 237 234 228 228 223 222 220 222 200 224 231 235 238 242 245 245 243 239 235
257 250 243 241 239 238 236 225 226 229 227 229 234 240 241 238 237 237 234 234 232 233 232 232 233 234 233 233 233 227 224 227 224 218 219 224 233 237 239 238 238 236 235
357 299 257 251 242 236 231 226 225 226 229 228 232 234 241 241 240 236 237 236 235 234 234 235 235 235 237 234 237 237 235 228 228 225 229 236 237 240 239 238 237 238 239
Wind_Speed_850mb
53 64 58 55 43 41 32 24 18 14 16 21 25 29 32 39 47 46 44 52 56 49 41 41 34 42 47 47 41 47 56 52 43 36 35 36 37 46 47 43 39 39 40
63 59 52 53 46 41 28 21 11 7 15 32 27 32 33 37 39 43 44 42 33 28 42 38 37 46 49 46 44 39 43 41 44 32 41 40 34 37 32 30 31 35 35
63 58 53 49 50 39 27 16 6 3 25 34 38 32 29 30 31 35 36 36 37 42 49 46 45 43 46 44 39 32 31 31 31 25 39 32 25 26 31 33 36 38 36
55 50 53 53 52 35 26 16 8 12 33 43 38 32 27 21 32 35 35 38 42 38 40 39 32 29 27 27 27 25 27 27 31 33 39 35 38 35 39 41 35 29 29
53 50 53 56 48 33 25 17 10 18 32 41 36 31 28 27 37 35 46 45 35 30 26 33 29 21 17 20 20 22 32 38 40 42 43 44 44 37 34 34 33 34 34
57 55 54 53 42 31 24 20 12 23 37 38 34 33 33 37 44 45 44 38 29 27 22 25 24 20 17 21 25 27 35 37 39 34 33 38 29 25 27 31 30 28 26
59 54 53 49 39 32 25 20 16 27 38 37 36 31 42 43 43 39 34 30 26 20 17 15 17 17 21 26 33 31 42 37 31 25 23 25 21 23 26 25 28 23 24
61 57 52 46 40 32 23 21 19 27 42 40 38 34 39 38 35 35 31 25 20 18 13 10 12 11 26 38 38 34 40 37 25 21 21 26 25 21 25 25 24 24 22
53 56 53 49 41 34 25 22 20 24 45 46 38 38 35 34 34 32 28 23 18 18 19 18 17 19 27 35 36 33 37 36 22 27 26 23 23 19 20 21 19 19 16
52 54 53 51 48 40 30 25 22 21 46 48 43 34 32 32 30 28 27 24 20 22 18 19 22 32 30 32 35 33 28 37 23 31 29 24 18 20 20 20 16 16 13
51 55 56 54 51 46 36 30 26 24 33 47 38 36 35 31 26 26 29 27 23 26 22 19 35 34 29 23 30 36 31 24 23 26 27 24 22 18 18 16 13 10 7
47 54 58 55 54 48 42 36 32 32 32 44 45 40 36 29 24 23 26 27 29 28 28 25 31 33 31 32 32 28 23 25 22 25 25 27 22 16 15 13 9 6 2
40 43 56 59 55 52 48 45 40 37 35 46 44 41 41 33 31 29 34 37 32 32 33 23 35 32 34 33 35 28 26 26 23 20 28 28 23 17 16 11 5 2 2
40 43 45 57 60 57 48 50 44 40 40 46 49 50 47 39 40 39 38 36 35 36 39 32 36 34 37 39 37 36 33 26 24 23 23 30 26 27 16 7 7 8 9
39 43 47 51 66 63 56 51 51 46 43 44 52 53 53 47 44 41 40 44 41 40 38 35 35 35 37 34 38 37 33 33 34 31 25 23 29 25 18 16 16 15 13
37 40 44 50 56 66 62 60 54 52 46 46 46 50 55 50 48 50 44 40 48 48 43 39 38 37 41 39 39 39 37 34 33 34 33 29 27 26 23 21 20 19 17
40 38 43 48 53 63 67 66 61 59 54 53 47 47 51 51 49 56 47 45 50 52 49 48 46 42 48 45 43 41 39 36 33 32 31 30 28 27 25 25 24 23 21
43 45 43 47 52 61 68 71 71 66 62 59 58 48 50 51 48 48 51 47 48 51 56 52 49 45 45 52 48 43 41 38 35 34 34 33 31 29 28 27 27 26 23
53 53 48 51 53 58 68 77 76 75 73 70 66 64 54 50 51 52 49 47 50 51 49 54 52 47 49 54 54 50 47 44 41 39 36 34 33 31 30 28 27 27 24
57 63 58 54 56 57 62 75 81 79 83 76 77 72 66 62 50 53 54 53 49 52 51 55 53 49 47 51 53 49 48 48 47 44 41 39 37 34 32 30 29 28 25
49 51 58 61 63 62 69 73 82 86 90 88 85 77 74 71 66 62 59 55 52 55 56 53 54 57 52 53 49 50 48 50 49 48 46 43 41 37 35 32 30 28 24
54 60 63 60 63 68 75 76 82 88 95 91 93 85 79 77 79 77 70 63 60 60 59 58 66 61 58 59 57 39 22 44 56 53 51 49 46 42 38 35 31 28 28
51 59 62 64 61 63 70 71 79 82 89 87 88 90 89 87 88 87 80 74 71 66 66 62 65 71 68 64 66 35 20 22 28 57 60 55 51 47 43 39 34 32 33
30 44 54 62 67 68 67 74 79 88 82 89 96 95 91 93 93 92 91 88 81 79 72 68 66 70 75 74 70 72 55 20 20 16 47 59 60 54 50 43 38 38 38
11 20 33 46 58 65 65 74 79 85 87 76 90 93 91 93 93 101 98 96 93 89 85 79 73 76 77 78 80 76 76 67 39 25 16 30 45 52 51 46 44 43 42
6 7 15 27 44 59 64 64 81 82 85 88 83 92 98 95 97 98 100 104 98 96 96 92 86 82 79 77 80 84 82 83 83 62 44 36 33 37 41 43 45 45 44
Wind_Direction_850mb
171 169 168 166 169 171 170 160 159 163 174 162 149 141 127 120 127 125 121 114 121 131 130 130 131 130 120 126 129 116 118 118 121 124 124 130 129 116 120 116 109 102 117
169 171 169 170 172 176 170 159 160 162 174 166 155 144 138 134 131 131 129 124 123 121 147 133 120 128 133 131 132 127 125 118 112 98 135 129 124 122 121 121 115 109 119
172 173 172 174 174 177 168 162 158 147 151 157 153 146 145 149 148 142 142 134 131 118 121 124 118 122 129 131 134 133 125 124 126 109 114 120 128 140 120 107 109 104 107
171 173 177 176 176 174 167 162 153 150 148 150 151 156 157 157 165 152 152 145 139 139 131 121 116 122 129 128 128 136 143 140 140 133 114 116 105 114 112 110 111 114 110
170 165 171 174 177 174 167 164 158 155 153 157 158 165 156 140 149 153 151 150 150 146 156 145 140 144 157 152 150 133 136 130 137 129 109 111 114 124 124 131 119 116 111
173 169 175 176 181 178 168 170 163 159 155 157 165 170 163 147 145 145 150 153 155 149 152 162 158 165 186 178 168 158 141 146 140 126 131 130 121 140 129 129 125 127 130
175 175 178 180 183 182 177 181 169 163 161 162 165 169 165 164 159 157 156 159 164 173 195 206 220 205 193 188 179 191 163 155 151 135 132 134 142 146 142 138 133 130 134
180 179 184 186 189 188 185 187 177 168 170 164 169 171 169 174 179 177 178 185 186 184 193 214 244 229 192 187 179 178 178 173 149 143 143 153 138 135 133 139 141 132 122
183 182 189 189 195 196 191 192 184 174 178 170 174 184 190 183 188 188 185 190 208 231 243 240 203 201 183 183 185 185 181 169 149 145 138 134 144 151 135 124 127 123 120
187 189 195 192 195 199 196 198 189 174 179 178 186 186 197 208 210 217 216 215 228 241 229 195 198 183 180 193 197 195 192 183 159 150 145 150 165 146 135 137 136 124 119
190 194 198 201 199 202 202 200 194 182 176 189 186 194 204 214 219 225 227 229 218 204 203 210 179 185 175 176 176 191 168 156 155 159 150 152 147 145 146 143 147 143 125
193 196 199 205 205 204 203 199 205 192 184 185 193 202 204 214 221 211 206 197 196 200 206 209 187 184 181 174 169 164 163 163 156 166 157 159 167 166 163 172 160 146 110
196 200 206 203 208 209 206 201 205 203 192 190 195 201 207 213 204 187 185 191 194 207 208 206 197 192 182 184 179 168 172 165 168 171 175 168 171 186 189 191 168 163 223
201 204 208 209 210 212 213 208 211 214 205 196 198 200 205 212 201 183 189 200 204 209 209 200 200 201 190 186 182 183 186 182 177 176 190 183 183 186 194 228 262 267 271
215 211 214 212 209 216 212 217 216 216 218 213 207 207 211 217 211 209 198 202 205 206 207 204 200 202 194 193 185 192 195 196 198 199 203 196 195 214 236 247 257 261 270
227 225 223 218 214 217 217 220 224 223 222 226 219 213 213 216 214 215 212 205 208 212 216 211 208 205 206 204 202 202 203 202 205 209 216 223 231 239 250 257 260 263 266
238 227 232 224 217 218 220 223 226 230 228 225 227 227 217 217 220 218 222 215 219 210 217 218 214 215 208 208 208 208 207 207 210 215 222 231 238 242 247 255 262 267 267
242 236 230 235 230 222 221 225 224 228 231 229 229 229 228 221 220 220 222 219 219 218 213 218 222 219 218 210 211 211 214 218 221 225 230 235 242 249 254 260 265 266 264
244 242 233 229 230 233 226 226 229 226 229 230 229 227 227 228 228 224 225 222 224 224 221 220 224 225 221 215 214 216 219 224 228 231 236 241 245 251 257 262 266 269 266
246 246 241 230 229 229 233 230 231 231 233 233 232 230 227 225 226 233 229 227 228 227 225 222 223 224 226 218 218 225 229 231 234 236 237 239 243 250 256 262 268 270 261
249 246 242 235 231 227 226 231 231 230 231 233 234 230 231 229 225 224 230 231 231 229 229 227 223 221 220 216 217 227 234 236 237 238 239 241 244 248 252 256 261 263 246
252 249 246 241 236 229 231 234 234 232 233 237 235 232 231 232 229 226 227 226 231 234 230 227 225 220 216 217 217 218 231 242 240 239 240 243 244 246 249 253 256 250 239
258 252 247 244 240 234 232 229 231 235 236 234 231 238 232 231 231 231 232 229 227 230 236 233 230 226 222 219 220 212 211 223 229 239 240 242 243 246 247 248 249 243 234
252 250 246 244 243 242 229 228 225 225 225 226 232 240 236 235 233 232 233 232 231 228 230 236 237 234 228 228 223 222 220 222 200 224 231 235 238 242 245 245 243 239 235
257 250 243 241 239 238 236 225 226 229 227 229 234 240 241 238 237 237 234 234 232 233 232 232 233 234 233 233 233 227 224 227 224 218 219 224 233 237 239 238 238 236 235
357 299 257 251 242 236 231 226 225 226 229 228 232 234 241 241 240 236 237 236 235 234 234 235 235 235 237 234 237 237 235 228 228 225 229 236 237 240 239 238 237 238 239